Regional Weather Roundup
Issued by NWS

Home | Current Version | Previous Version | Text Only | Print | Product List | Glossary On
Versions: 1 2 3 4 5 6 7 8 9 10 11 12 13 14 15 16 17 18 19 20 21 22 23 24 25 26 27 28 29 30 31 32 33 34 35 36 37 38 39 40 41 42 43 44 45 46 47 48 49 50
000
ASUS43 KBIS 011820
RWRND

NORTH DAKOTA REGIONAL WEATHER ROUNDUP
NATIONAL WEATHER SERVICE BISMARCK ND
100 PM CDT WED OCT 01 2014

NOTE: "FAIR" INDICATES FEW OR NO CLOUDS BELOW 12,000 FEET WITH NO
SIGNIFICANT WEATHER AND/OR OBSTRUCTIONS TO VISIBILITY.


NDZ001>003-009>011-017-011900-
NORTHWEST NORTH DAKOTA

CITY           SKY/WX    TMP DP  RH WIND       PRES   REMARKS
WILLISTON      CLOUDY    55  48  77 W20G26    29.73R
6HR MIN TEMP:  52; 6HR MAX TEMP:  56; 6HR PCP: TRACE;

MINOT          CLOUDY    58  50  75 W18G28    29.63R
MINOT AFB      CLOUDY    57  54  88 NW20G28   29.62R
$$

NDZ018>021-031>035-040>046-011900-
SOUTHWEST NORTH DAKOTA

CITY           SKY/WX    TMP DP  RH WIND       PRES   REMARKS
BISMARCK       MOSUNNY   63  50  62 W24G32    29.73R
6HR MIN TEMP:  55; 6HR MAX TEMP:  64;

DICKINSON      CLOUDY    53  46  77 W20       29.76R
GARRISON         N/A     57  50  77 W18G25    29.68R
6HR MIN TEMP:  53; 6HR MAX TEMP:  58;

HETTINGER ARPT CLOUDY    52  46  80 W18       29.82R
$$

NDZ004>008-012>016-024-026-027-054-011900-
NORTHEAST NORTH DAKOTA

CITY           SKY/WX    TMP DP  RH WIND       PRES   REMARKS
GRAND FORKS    CLOUDY    64  54  69 SW14G20   29.58S
GRND FRKS AFB  CLOUDY    64  55  73 SW14      29.59S
DEVILS LAKE    CLOUDY    61  50  67 W20       29.58R
$$

NDZ022-023-025-028>030-036>039-047>053-011900-
SOUTHEAST NORTH DAKOTA

CITY           SKY/WX    TMP DP  RH WIND       PRES   REMARKS
FARGO          PTSUNNY   69  54  58 SW10      29.63F
6HR MIN TEMP:  59; 6HR MAX TEMP:  69;

JAMESTOWN      CLOUDY    60  50  69 W18G26    29.65R
$$




USA.gov is the U.S. government's official web portal to all federal, state and local government web resources and services.